Retour au catalogue

FENGYUN 1C DEB

ActifSSO
NORAD 31256·DEBRIS·🇨🇳 China

Lancé May 10, 1999 depuis Taiyuan Satellite Launch Center

Loading…

Prochains Passages (prochaines 24 heures)

TLE

FraisSource: Space-Track

Époque: Sep 11, 2026, 11:59 UTC

1 31256U 99025BMN 26254.49976562  .00003327  00000-0  13446-2 0  9994
2 31256  98.6613  95.7227 0302275  65.2652 297.9658 14.06511384688123

Suivez FENGYUN 1C DEB en temps réel avec AllMySat

Download on the App Store